Location: Ailingen
(47.6833°N, 9.5000°E)
Time: 07:07:00
(UTC+00:00)

COSMOS 2406 - Pass Details

Date: 18 November 2025
Orbit: 845 x 859 km, 71.0° (Epoch: 13 December)

Event Time Altitude Azimuth Distance (km) Brightness Sun altitude
Rises 18:07:09 0° 330° (NNW) 3,417 6.7 -24.2°
Reaches altitude 10° 18:09:37 10° 329° (NNW) 2,479 6.0 -24.6°
Maximum altitude 18:15:15 69° 247° (WSW) 905 3.4 -25.6°
Enters shadow 18:19:03 22° 168° (SSE) 1,794 4.8 -26.2°
